Location: Caltech
(34.1382°N, 118.1253°W)
Time: 01:43:00
(UTC-07:00)

CZ-4B DEB - Visible Passes

Search period start: 27 April 2018 00:00
Search period end: 07 May 2018 00:00
Orbit: 842 x 861 km, 99.0° (Epoch: 26 April)

Date Brightness Start Highest point End Pass type
(mag) Time Alt. Az. Time Alt. Az. Time Alt. Az.
27 Apr 4.2 05:17:13 10° NNE 05:22:46 87° WNW 05:28:16 10° SSW visible
28 Apr 4.5 05:05:41 10° NNE 05:11:14 74° ESE 05:16:42 10° S visible
29 Apr 4.9 04:54:14 10° NNE 04:59:40 57° E 05:05:02 10° S visible
30 Apr 5.3 04:42:49 10° NNE 04:48:05 43° E 04:53:16 10° S visible
01 May 5.8 04:31:31 10° NE 04:36:28 33° E 04:41:23 10° SSE visible
02 May 6.2 04:20:19 10° NE 04:24:51 26° E 04:29:22 10° SSE visible
03 May 6.5 04:09:15 10° NE 04:13:13 20° E 04:17:09 10° SE visible
04 May 6.8 03:58:26 10° ENE 04:01:33 15° E 04:04:39 10° SE visible
05 May 7.0 03:48:16 10° ENE 03:49:52 11° E 03:51:28 10° ESE visible
05 May 4.2 05:25:31 10° N 05:31:02 74° WNW 05:36:29 10° SSW visible
06 May 4.3 05:13:57 10° NNE 05:19:29 86° ESE 05:24:58 10° SSW visible
